Regional Weather Roundup
Issued by NWS

Home | Current Version | Previous Version | Text Only | Print | Product List | Glossary On
Versions: 1 2 3 4 5 6 7 8 9 10 11 12 13 14 15 16 17 18 19 20 21 22 23 24 25 26 27 28 29 30 31 32 33 34 35 36 37 38 39 40 41 42 43 44 45 46 47 48 49 50
000
ASUS45 KSLC 240010
RWRUT

UTAH REGIONAL WEATHER ROUNDUP
NATIONAL WEATHER SERVICE SALT LAKE CITY UT
600 PM MDT SUN APR 23 2017

UTZ001>011-023>025-240100-

NORTHERN UTAH

CITY           SKY/WX    TMP DP  RH WIND       PRES   REMARKS
BRIGHAM CITY   CLOUDY    59  31  34 NE10G20   29.81S
HILL AFB       NOT AVBL
LOGAN          CLOUDY    58  36  43 SW16G23   29.82R
OGDEN          CLOUDY    59  31  34 NW12      29.81R
SALT LAKE CITY CLOUDY    63  33  32 NW21      29.81R
TOOELE VALLEY  CLOUDY    59  37  44 NW17      29.82S
WENDOVER       CLOUDY    62  37  39 SE10      29.81R
HEBER CITY     RAIN      55  36  47 SW15G26   29.79R

$$

UTZ011>015-024>027-240100-

CENTRAL/NORTHEAST UTAH

CITY           SKY/WX    TMP DP  RH WIND       PRES   REMARKS
PROVO AIRPORT  PTSUNNY   61  36  39 N17G24    29.78R
MOAB/CANYONLAN CLOUDY    78  17  10 SW28G33   29.68F
DELTA          CLOUDY    61  30  31 NW32G46   29.76R
PRICE          PTSUNNY   66  21  18 SW7       29.75F
RICHFIELD      SUNNY     72  23  16 S22G32      N/A
ROOSEVELT      CLOUDY    66  30  26 W18G24    29.76S
VERNAL         CLOUDY    70  23  17 SW9G23    29.72F

$$

UTZ013>016-019>022-027-240100-

SOUTHERN UTAH

CITY           SKY/WX    TMP DP  RH WIND       PRES   REMARKS
BRYCE CANYON   CLOUDY    62  14  15 SW23G38   29.88F
CEDAR CITY     MOSUNNY   72  20  14 SW23G35   29.77S
MILFORD        LGT RAIN  67  25  20 W25G60    29.76R SQUALL
ST GEORGE      CLOUDY    86  19   8 SW28G40   29.63S
HANKSVILLE     MOSUNNY   79  21  11 S24G37    29.69F
KANAB          SUNNY     75  10   8 S20G32    29.79F
BLANDING       PTSUNNY   72  13  10 SW16G25   29.88F

$$

REGIONAL REPORTS     COLORADO/ARIZONA

CITY           SKY/WX    TMP DP  RH WIND       PRES   REMARKS
CRAIG, CO      CLOUDY    65  23  20 SW20G25   29.77F
GRAND JUNCTION CLOUDY    73  25  16 NW14      29.74S
RIFLE, CO      CLOUDY    71  23  16 W16       29.76R
MONTROSE, CO   CLOUDY    72  17  12 S9G25     29.81F
CORTEZ, CO     CLOUDY    73  21  14 SW13      29.85F
COLORADO CITY    N/A     77  19  11 SW25G35   29.81R
PAGE, AZ       SUNNY     82  17   9 SW12G20   29.70F
GRAND CANYON   SUNNY     70  12  10 SW23G39   29.93F
KINGMAN, AZ    SUNNY     83  19   9 SW23G37   29.77F
FLAGSTAFF, AZ  MOSUNNY   66  17  15 SW29G40   29.97F

$$

REGIONAL REPORTS    NEVADA/IDAHO/WYOMING

CITY           SKY/WX    TMP DP  RH WIND       PRES   REMARKS
LAS VEGAS, NV  MOSUNNY   88  15   6 SW18G36   29.61F
ELY, NY        MOSUNNY   55  31  39 NE12      29.88F
ELKO, NV       MOSUNNY   64  20  18 W18G26    29.81F
POCATELLO, ID  CLOUDY    59  34  39 SW21G31   29.79R
BURLEY, ID     SUNNY     62  34  35 W9        29.76F
FORT BRIDGER,  CLOUDY    54  30  40 NW18      29.85R
EVANSTON, WY   CLOUDY    55  31  39 NW21G28   29.84R
ROCK SPRINGS,  CLOUDY    58  31  35 W13       29.79R
KEMMERER, WY     N/A     48  30  49 NW22G29   29.84R

$$



USA.gov is the U.S. government's official web portal to all federal, state and local government web resources and services.